KB6VSE Weather Reports


time (UTC)temp
F
wind
direction
speed
knots
gust
knots
rain 1hr
in
rain 24hr
in
rain mn
in
humidity
%
barometer
mb
20260509211551 79 0 0.0 1.7 0.00 0.00 0.00 44 1016.2
20260509210104 78 0 0.0 0.0 0.00 0.00 0.00 42 1016.3
20260509204551 77 0 0.0 0.0 0.00 0.00 0.00 50 1016.3
20260509203047 76 0 0.0 0.0 0.00 0.00 0.00 51 1016.5
20260509201556 75 0 0.0 0.0 0.00 0.00 0.00 54 1016.6
20260509200051 74 0 0.0 0.0 0.00 0.00 0.00 53 1016.7
20260509194548 73 0 0.0 0.0 0.00 0.00 0.00 56 1017.0
20260509193046 71 0 0.0 0.9 0.00 0.00 0.00 57 1017.3
20260509191553 70 0 0.0 0.0 0.00 0.00 0.00 59 1017.5
20260509190059 69 0 0.0 0.0 0.00 0.00 0.00 64 1017.8
20260509184547 68 0 0.0 0.0 0.00 0.00 0.00 66 1017.8
20260509183048 67 0 0.0 0.9 0.00 0.00 0.00 67 1018.1
20260509181546 65 0 0.0 0.0 0.00 0.00 0.00 69 1018.2
20260509180047 64 0 0.0 0.0 0.00 0.00 0.00 71 1018.3
20260509174545 62 0 0.0 0.0 0.00 0.00 0.00 72 1018.2
20260509173053 61 0 0.0 0.0 0.00 0.00 0.00 74 1018.3
20260509171549 60 0 0.0 0.0 0.00 0.00 0.00 76 1018.7
20260509170057 59 0 0.0 0.0 0.00 0.00 0.00 77 1018.7
20260509164545 58 0 0.0 0.0 0.00 0.00 0.00 77 1018.8
20260509163103 57 0 0.0 0.0 0.00 0.00 0.00 77 1018.9
20260509161553 56 0 0.0 0.9 0.00 0.00 0.00 81 1019.0
20260509160048 54 0 0.0 0.0 0.00 0.00 0.00 85 1019.2
20260509154550 53 0 0.0 0.9 0.00 0.00 0.00 86 1019.2
20260509153046 52 0 0.0 0.0 0.00 0.00 0.00 88 1019.2
20260509151547 51 0 0.0 0.0 0.00 0.00 0.00 90 1019.2
20260509150104 50 0 0.0 0.0 0.00 0.00 0.00 93 1019.2
20260509144547 49 0 0.0 0.0 0.00 0.00 0.00 94 1019.1
20260509143055 48 0 0.0 0.0 0.00 0.00 0.00 93 1019.2
20260509141547 47 0 0.0 0.0 0.00 0.00 0.00 93 1019.1
20260509140045 47 0 0.0 0.0 0.00 0.00 0.00 93 1019.1
20260509134544 46 0 0.0 0.0 0.00 0.00 0.00 93 1018.9
20260509133050 46 0 0.0 0.0 0.00 0.00 0.00 93 1018.8
20260509131547 45 0 0.0 0.0 0.00 0.00 0.00 93 1018.7
20260509130055 45 0 0.0 0.0 0.00 0.00 0.00 93 1018.6
20260509124555 45 0 0.0 0.0 0.00 0.00 0.00 92 1018.6
20260509123044 45 0 0.0 0.0 0.00 0.00 0.00 92 1018.8
20260509121557 45 0 0.0 0.0 0.00 0.00 0.00 92 1018.7
20260509120049 46 0 0.0 0.0 0.00 0.00 0.00 92 1018.8
20260509114600 46 0 0.0 0.0 0.00 0.00 0.00 92 1018.8
20260509113046 46 0 0.0 0.0 0.00 0.00 0.00 92 1019.0
20260509111547 46 0 0.0 0.0 0.00 0.00 0.00 91 1018.9
20260509110053 46 0 0.0 0.0 0.00 0.00 0.00 91 1019.1
20260509104552 47 0 0.0 0.0 0.00 0.00 0.00 91 1019.3
20260509103051 47 0 0.0 0.0 0.00 0.00 0.00 91 1019.3
20260509101545 47 0 0.0 0.0 0.00 0.00 0.00 90 1019.3
20260509100046 47 0 0.0 0.0 0.00 0.00 0.00 91 1019.4
20260509094549 48 0 0.0 0.0 0.00 0.00 0.00 90 1019.5
20260509093045 48 0 0.0 0.0 0.00 0.00 0.00 90 1019.5
20260509091548 48 0 0.0 0.0 0.00 0.00 0.00 89 1019.6
20260509090057 49 0 0.0 0.0 0.00 0.00 0.00 88 1019.7
20260509084549 49 0 0.0 0.0 0.00 0.00 0.00 88 1019.7
20260509083052 50 0 0.0 0.0 0.00 0.00 0.00 87 1019.9
20260509081545 50 0 0.0 0.0 0.00 0.00 0.00 86 1020.0
20260509074551 51 0 0.0 0.0 0.00 0.00 0.00 83 1020.3
20260509073055 52 0 0.0 0.0 0.00 0.00 0.00 82 1020.2
20260509071552 53 0 0.0 0.0 0.00 0.00 0.00 82 1020.4
20260509070050 53 0 0.0 0.0 0.00 0.00 0.00 80 1020.5
20260509064544 54 0 0.0 0.0 0.00 0.00 0.00 80 1020.6
20260509063049 54 0 0.0 0.0 0.00 0.00 0.00 78 1020.6
20260509061544 55 0 0.0 0.0 0.00 0.00 0.00 77 1020.7
20260509060054 55 0 0.0 0.0 0.00 0.00 0.00 77 1020.9
20260509054551 55 0 0.0 0.0 0.00 0.00 0.00 77 1021.0
20260509053047 56 0 0.0 0.0 0.00 0.00 0.00 76 1020.8
20260509051546 56 0 0.0 0.0 0.00 0.00 0.00 75 1020.7
20260509050057 57 0 0.0 0.0 0.00 0.00 0.00 73 1020.5
20260509044543 58 0 0.0 0.0 0.00 0.00 0.00 72 1020.4
20260509043048 59 0 0.0 0.0 0.00 0.00 0.00 70 1020.1
20260509041549 60 0 0.0 0.0 0.00 0.00 0.00 68 1020.1
20260509040049 61 0 0.0 0.0 0.00 0.00 0.00 67 1019.8
20260509034558 62 0 0.0 0.0 0.00 0.00 0.00 64 1019.7
20260509033102 63 0 0.0 0.0 0.00 0.00 0.00 62 1019.4
20260509031553 65 0 0.0 0.0 0.00 0.00 0.00 59 1019.3
20260509030049 66 0 0.0 0.9 0.00 0.00 0.00 57 1019.1
20260509024552 68 0 0.0 0.0 0.00 0.00 0.00 53 1018.9
20260509023047 69 0 0.0 2.6 0.00 0.00 0.00 52 1018.8
20260509021551 70 0 0.0 0.0 0.00 0.00 0.00 48 1018.7
20260509020050 71 0 0.0 0.0 0.00 0.00 0.00 46 1018.6
20260509014546 72 0 0.0 0.0 0.00 0.00 0.00 44 1018.4
20260509013049 73 0 0.0 0.0 0.00 0.00 0.00 40 1018.4
20260509011548 74 0 0.0 0.0 0.00 0.00 0.00 35 1018.4
20260509010055 74 0 0.0 0.0 0.00 0.00 0.00 32 1018.5
20260509004555 75 0 0.0 0.9 0.00 0.00 0.00 28 1018.4
20260509003048 75 0 0.0 4.3 0.00 0.00 0.00 31 1018.4
20260509001549 76 0 0.0 4.3 0.00 0.00 0.00 30 1018.4
20260509000048 76 0 0.0 7.8 0.00 0.00 0.00 29 1018.4
20260508234544 77 0 0.0 1.7 0.00 0.00 0.00 32 1018.5
20260508233044 77 0 0.0 8.7 0.00 0.00 0.00 27 1018.5
20260508231553 78 0 0.0 0.0 0.00 0.00 0.00 29 1018.6
20260508230048 78 0 0.0 1.7 0.00 0.00 0.00 28 1018.7
20260508224607 78 0 0.0 5.2 0.00 0.00 0.00 28 1018.8
20260508223045 77 0 0.0 8.7 0.00 0.00 0.00 32 1018.8
20260508221557 78 0 0.0 7.8 0.00 0.00 0.00 32 1019.0
20260508220049 77 0 0.0 5.2 0.00 0.00 0.00 32 1019.0
20260508214550 77 0 0.0 0.0 0.00 0.00 0.00 39 1019.1
20260508213045 76 343 0.0 0.0 0.00 0.00 0.00 42 1019.3